Regional Weather Roundup
Issued by NWS Sioux Falls, SD

Home | Current Version | Previous Version | Text Only | Print | Product List | Glossary On
Versions: 1 2 3 4 5 6 7 8 9 10 11 12 13 14 15 16 17 18 19 20 21 22 23 24 25 26 27 28 29 30 31 32 33 34 35 36 37 38 39 40 41 42 43 44 45 46 47 48 49 50
851
ASUS43 KFSD 130710
RWRFSD

WEATHER ROUNDUP FOR SE SOUTH DAKOTA/SW MINNESOTA/NW IOWA
NATIONAL WEATHER SERVICE SIOUX FALLS SD
100 AM CST SAT FEB 13 2016

NOTE: "FAIR" INDICATES FEW OR NO CLOUDS BELOW 12,000 FEET WITH NO
SIGNIFICANT WEATHER AND OR OBSTRUCTIONS TO VISIBILITY.


SDZ038>040-050-052>070-130800-
SOUTHEAST SOUTH DAKOTA

CITY           SKY/WX    TMP DP  RH WIND       PRES   REMARKS
BROOKINGS      CLOUDY    -8 -13  78 W3        30.58R
CHAMBERLAIN    CLOUDY     9   1  69 E9G16     30.51F WCI  -4
HURON          CLOUDY     3  -4  72 SE6       30.61F WCI  -8
MADISON        FAIR      -2  -8  78 CALM      30.58S
MITCHELL       CLOUDY     5  -4  66 E6        30.63F WCI  -6
SIOUX FALLS    CLOUDY    -3  -9  75 N6        30.61F WCI -15
WINNER         FLURRIES  17   9  70 SE16      30.45F WCI   2
YANKTON        CLOUDY     7  -2  66 E3        30.63S
$$

MNZ071-072-080-081-089-090-097-098-130800-
SOUTHWEST MINNESOTA

CITY           SKY/WX    TMP DP  RH WIND       PRES   REMARKS
FAIRMONT       CLOUDY    -2  -9  71 NW12      30.59S WCI -20
JACKSON        CLOUDY    -4  -9  77 N3        30.58S
LUVERNE        CLOUDY    -4  -9  77 CALM      30.62S
MARSHALL       CLOUDY    -5 -11  75 NW7       30.64S WCI -19
MONTEVIDEO     CLOUDY    -8 -11  84 N5        30.66F WCI -19
PIPESTONE      CLOUDY    -4 -15  59 CALM      30.56S
REDWOOD FALLS  CLOUDY    -3  -8  79 NW7       30.63F WCI -16
TRACY          CLOUDY    -4  -9  79 NW6       30.62S WCI -17
WINDOM         CLOUDY    -6  -9  84 NW9       30.59F WCI -22
WORTHINGTON    CLOUDY    -8 -13  77 NW6       30.59S WCI -21
$$

IAZ001>003-012>014-020>022-031-032-NEZ013-014-SDZ071-130800-
NORTHWEST IOWA

CITY           SKY/WX    TMP DP  RH WIND       PRES   REMARKS
CHEROKEE       CLOUDY    -3  -6  86 CALM      30.64R
DENISON        CLOUDY     1  -4  78 N5        30.62R WCI  -8
ESTHERVILLE    CLOUDY    -4  -9  79 NW8       30.60R WCI -19
LE MARS        CLOUDY     1  -4  78 CALM      30.66S
ORANGE CITY    CLOUDY     0  -6  78 N6        30.61S WCI -12
SHELDON        CLOUDY    -6 -11  77 N3        30.60F
SIOUX CITY     CLOUDY     7  -6  55 NE7       30.64S WCI  -5
SPENCER        CLOUDY    -5 -11  75 NW8       30.61S WCI -20
STORM LAKE     CLOUDY    -2  -8  78 NW6       30.61R WCI -14
$$

ABBREVIATIONS USED IN REMARKS
   TC - TEMPERATURE IN CELSIUS
  WCI - WIND CHILL INDEX
   HX - HEAT INDEX
  VSB - VISIBILITY





USA.gov is the U.S. government's official web portal to all federal, state and local government web resources and services.